User: anonymous   Login
Location: Bruch
(44.2051°N, 0.4120°E)
Time: 19:35:27
(UTC+00:00)
Language:

NOAA 6 - Orbit

View from above orbital plane
View from above orbital plane
View from above satellite
View from above satellite

Ground track
Ground track

The orbit data is extracted from the following two-line orbital elements,

1 11416U 79057A   21126.94298490  .00000032  00000-0  27826-4 0  9992
2 11416  98.6665 132.1294 0010774  24.2295 335.9394 14.33632113183274
Epoch (UTC): 06 May 2021 22:37:53
Eccentricity: 0.0010774
inclination: 98.6665°
perigee height: 772 km
apogee height: 787 km
right ascension of ascending node: 132.1294°
argument of perigee: 24.2295°
revolutions per day: 14.33632113
mean anomaly at epoch: 335.9394°
orbit number at epoch: 18327

The dashed part of the orbit path shows where the satellite is in the earth's shadow,  

DLR